| time (UTC) | temp C | wind direction | speed KPH | gust KPH | rain 1hr cm | rain 24hr cm | rain mn cm | humidity % | barometer mb |
| 20260504214047 | 24 | 168 | 0.0 | 1.6 | 0.00 | 0.00 | 0.00 | 29 | 1009.6 |
| 20260504213544 | 23 | 172 | 0.0 | 1.6 | 0.00 | 0.00 | 0.00 | 29 | 1009.7 |
| 20260504213041 | 23 | 202 | 1.6 | 3.2 | 0.00 | 0.00 | 0.00 | 28 | 1009.8 |
| 20260504212537 | 24 | 229 | 1.6 | 3.2 | 0.00 | 0.00 | 0.00 | 27 | 1009.8 |
| 20260504212034 | 23 | 329 | 1.6 | 3.2 | 0.00 | 0.00 | 0.00 | 29 | 1009.9 |
| 20260504211531 | 23 | 208 | 1.6 | 4.8 | 0.00 | 0.00 | 0.00 | 28 | 1010.0 |
| 20260504211028 | 23 | 308 | 3.2 | 4.8 | 0.00 | 0.00 | 0.00 | 28 | 1009.9 |
| 20260504210525 | 24 | 245 | 1.6 | 4.8 | 0.00 | 0.00 | 0.00 | 28 | 1009.9 |
| 20260504210022 | 24 | 283 | 3.2 | 9.7 | 0.00 | 0.00 | 0.00 | 28 | 1010.0 |
| 20260504205520 | 24 | 228 | 0.0 | 3.2 | 0.00 | 0.00 | 0.00 | 28 | 1009.8 |
| 20260504205018 | 25 | 256 | 3.2 | 12.9 | 0.00 | 0.00 | 0.00 | 27 | 1009.8 |
| 20260504204515 | 24 | 233 | 1.6 | 3.2 | 0.00 | 0.00 | 0.00 | 27 | 1009.7 |
| 20260504204014 | 24 | 320 | 6.4 | 6.4 | 0.00 | 0.00 | 0.00 | 27 | 1009.6 |
| 20260504203512 | 24 | 194 | 1.6 | 9.7 | 0.00 | 0.00 | 0.00 | 27 | 1009.8 |
| 20260504203009 | 24 | 223 | 0.0 | 6.4 | 0.00 | 0.00 | 0.00 | 27 | 1009.7 |
| 20260504202504 | 24 | 135 | 1.6 | 4.8 | 0.00 | 0.00 | 0.00 | 28 | 1009.7 |
| 20260504202001 | 25 | 183 | 1.6 | 4.8 | 0.00 | 0.00 | 0.00 | 28 | 1009.8 |
| 20260504201458 | 24 | 172 | 3.2 | 4.8 | 0.00 | 0.00 | 0.00 | 27 | 1009.7 |
| 20260504200956 | 23 | 238 | 1.6 | 3.2 | 0.00 | 0.00 | 0.00 | 28 | 1009.8 |
| 20260504200452 | 24 | 312 | 3.2 | 4.8 | 0.00 | 0.00 | 0.00 | 28 | 1009.9 |
| 20260504195949 | 24 | 305 | 1.6 | 6.4 | 0.00 | 0.00 | 0.00 | 27 | 1009.9 |
| 20260504195445 | 24 | 173 | 0.0 | 3.2 | 0.00 | 0.00 | 0.00 | 28 | 1010.2 |
| 20260504194942 | 24 | 213 | 1.6 | 3.2 | 0.00 | 0.00 | 0.00 | 28 | 1010.1 |
| 20260504194438 | 24 | 143 | 4.8 | 14.5 | 0.00 | 0.00 | 0.00 | 28 | 1010.2 |
| 20260504193934 | 24 | 106 | 1.6 | 4.8 | 0.00 | 0.00 | 0.00 | 28 | 1010.1 |
| 20260504193431 | 24 | 263 | 4.8 | 6.4 | 0.00 | 0.00 | 0.00 | 28 | 1010.5 |
| 20260504192930 | 24 | 42 | 3.2 | 6.4 | 0.00 | 0.00 | 0.00 | 28 | 1010.5 |
| 20260504192427 | 24 | 91 | 0.0 | 6.4 | 0.00 | 0.00 | 0.00 | 28 | 1010.4 |
| 20260504191926 | 24 | 258 | 1.6 | 4.8 | 0.00 | 0.00 | 0.00 | 28 | 1010.5 |
| 20260504191424 | 24 | 286 | 3.2 | 3.2 | 0.00 | 0.00 | 0.00 | 28 | 1010.5 |
| 20260504190918 | 24 | 163 | 3.2 | 9.7 | 0.00 | 0.00 | 0.00 | 30 | 1010.5 |
| 20260504190414 | 25 | 329 | 4.8 | 11.3 | 0.00 | 0.00 | 0.00 | 27 | 1010.8 |
| 20260504185911 | 24 | 55 | 3.2 | 4.8 | 0.00 | 0.00 | 0.00 | 28 | 1010.9 |
| 20260504185409 | 24 | 265 | 3.2 | 6.4 | 0.00 | 0.00 | 0.00 | 27 | 1010.9 |
| 20260504184904 | 23 | 293 | 3.2 | 4.8 | 0.00 | 0.00 | 0.00 | 30 | 1010.9 |
| 20260504184400 | 23 | 184 | 1.6 | 6.4 | 0.00 | 0.00 | 0.00 | 29 | 1011.2 |
| 20260504183856 | 23 | 216 | 3.2 | 11.3 | 0.00 | 0.00 | 0.00 | 29 | 1011.2 |
| 20260504183354 | 24 | 243 | 6.4 | 11.3 | 0.00 | 0.00 | 0.00 | 28 | 1011.2 |
| 20260504182851 | 24 | 157 | 1.6 | 3.2 | 0.00 | 0.00 | 0.00 | 28 | 1011.2 |
| 20260504182348 | 24 | 259 | 4.8 | 6.4 | 0.00 | 0.00 | 0.00 | 29 | 1011.2 |
| 20260504181845 | 24 | 164 | 1.6 | 3.2 | 0.00 | 0.00 | 0.00 | 29 | 1011.3 |
| 20260504181343 | 23 | 169 | 3.2 | 4.8 | 0.00 | 0.00 | 0.00 | 29 | 1011.3 |
| 20260504180841 | 23 | 98 | 0.0 | 3.2 | 0.00 | 0.00 | 0.00 | 29 | 1011.5 |
| 20260504180339 | 22 | 341 | 6.4 | 11.3 | 0.00 | 0.00 | 0.00 | 31 | 1011.5 |
| 20260504175837 | 23 | 155 | 4.8 | 4.8 | 0.00 | 0.00 | 0.00 | 30 | 1011.6 |
| 20260504175334 | 23 | 143 | 0.0 | 9.7 | 0.00 | 0.00 | 0.00 | 29 | 1011.7 |
| 20260504174832 | 23 | 341 | 6.4 | 11.3 | 0.00 | 0.00 | 0.00 | 29 | 1011.6 |
| 20260504174329 | 23 | 251 | 3.2 | 9.7 | 0.00 | 0.00 | 0.00 | 28 | 1011.6 |
| 20260504173826 | 23 | 182 | 1.6 | 3.2 | 0.00 | 0.00 | 0.00 | 31 | 1011.7 |
| 20260504173323 | 22 | 229 | 3.2 | 6.4 | 0.00 | 0.00 | 0.00 | 31 | 1012.0 |
| 20260504172820 | 22 | 181 | 4.8 | 14.5 | 0.00 | 0.00 | 0.00 | 31 | 1011.9 |
| 20260504172316 | 22 | 324 | 3.2 | 17.7 | 0.00 | 0.00 | 0.00 | 31 | 1012.0 |
| 20260504171812 | 23 | 137 | 1.6 | 9.7 | 0.00 | 0.00 | 0.00 | 32 | 1012.0 |
| 20260504171310 | 23 | 174 | 1.6 | 6.4 | 0.00 | 0.00 | 0.00 | 31 | 1012.2 |
| 20260504170807 | 22 | 245 | 1.6 | 6.4 | 0.00 | 0.00 | 0.00 | 31 | 1012.3 |
| 20260504170303 | 22 | 123 | 3.2 | 6.4 | 0.00 | 0.00 | 0.00 | 32 | 1012.2 |
| 20260504160222 | 22 | 237 | 4.8 | 12.9 | 0.00 | 0.00 | 0.00 | 29 | 1013.0 |
| 20260504150653 | 20 | 154 | 1.6 | 4.8 | 0.00 | 0.00 | 0.00 | 37 | 1013.6 |
| 20260504150149 | 20 | 177 | 3.2 | 9.7 | 0.00 | 0.00 | 0.00 | 37 | 1013.6 |
| 20260504141118 | 18 | 154 | 3.2 | 4.8 | 0.00 | 0.00 | 0.00 | 41 | 1013.8 |
| 20260504140615 | 18 | 175 | 11.3 | 14.5 | 0.00 | 0.00 | 0.00 | 41 | 1013.8 |
| 20260504140110 | 18 | 318 | 3.2 | 4.8 | 0.00 | 0.00 | 0.00 | 41 | 1013.9 |
| 20260504130539 | 15 | 182 | 3.2 | 3.2 | 0.00 | 0.00 | 0.00 | 52 | 1014.5 |
| 20260504110426 | 8 | 165 | 1.6 | 3.2 | 0.00 | 0.00 | 0.00 | 73 | 1015.2 |
| 20260504100343 | 6 | 192 | 0.0 | 1.6 | 0.00 | 0.00 | 0.00 | 72 | 1015.1 |
| 20260504081736 | 5 | 169 | 0.0 | 0.0 | 0.00 | 0.00 | 0.00 | 70 | 1014.8 |
| 20260504081233 | 5 | 169 | 0.0 | 0.0 | 0.00 | 0.00 | 0.00 | 70 | 1014.9 |
| 20260504080729 | 5 | 169 | 0.0 | 0.0 | 0.00 | 0.00 | 0.00 | 69 | 1014.8 |
| 20260504080226 | 5 | 169 | 0.0 | 0.0 | 0.00 | 0.00 | 0.00 | 69 | 1014.7 |
| 20260504070153 | 6 | 167 | 0.0 | 0.0 | 0.00 | 0.00 | 0.00 | 65 | 1014.5 |
| 20260504060114 | 7 | 167 | 0.0 | 0.0 | 0.00 | 0.00 | 0.00 | 61 | 1014.5 |
| 20260504050542 | 7 | 155 | 0.0 | 1.6 | 0.00 | 0.00 | 0.00 | 58 | 1014.2 |
| 20260504045536 | 7 | 153 | 0.0 | 0.0 | 0.00 | 0.00 | 0.00 | 58 | 1014.1 |
| 20260504045031 | 7 | 152 | 0.0 | 0.0 | 0.00 | 0.00 | 0.00 | 59 | 1014.1 |
| 20260504044529 | 7 | 152 | 0.0 | 0.0 | 0.00 | 0.00 | 0.00 | 59 | 1014.1 |
| 20260504044026 | 7 | 152 | 0.0 | 0.0 | 0.00 | 0.00 | 0.00 | 59 | 1013.9 |
| 20260504043523 | 7 | 152 | 0.0 | 0.0 | 0.00 | 0.00 | 0.00 | 59 | 1014.1 |
| 20260504043020 | 7 | 152 | 0.0 | 0.0 | 0.00 | 0.00 | 0.00 | 59 | 1014.0 |
| 20260504042517 | 7 | 152 | 0.0 | 0.0 | 0.00 | 0.00 | 0.00 | 59 | 1013.9 |
| 20260504042014 | 7 | 152 | 0.0 | 0.0 | 0.00 | 0.00 | 0.00 | 58 | 1013.9 |
| 20260504041510 | 8 | 152 | 0.0 | 0.0 | 0.00 | 0.00 | 0.00 | 56 | 1013.7 |
| 20260504041006 | 8 | 152 | 0.0 | 0.0 | 0.00 | 0.00 | 0.00 | 56 | 1013.8 |
| 20260504040504 | 8 | 152 | 0.0 | 0.0 | 0.00 | 0.00 | 0.00 | 55 | 1013.8 |
| 20260504035959 | 8 | 152 | 0.0 | 0.0 | 0.00 | 0.00 | 0.00 | 55 | 1013.8 |
| 20260504035457 | 8 | 152 | 0.0 | 0.0 | 0.00 | 0.00 | 0.00 | 55 | 1013.6 |
| 20260504034953 | 8 | 152 | 0.0 | 0.0 | 0.00 | 0.00 | 0.00 | 55 | 1013.6 |
| 20260504034451 | 8 | 152 | 0.0 | 0.0 | 0.00 | 0.00 | 0.00 | 55 | 1013.7 |
| 20260504033948 | 8 | 151 | 0.0 | 0.0 | 0.00 | 0.00 | 0.00 | 56 | 1013.6 |
| 20260504033446 | 7 | 155 | 0.0 | 0.0 | 0.00 | 0.00 | 0.00 | 56 | 1013.5 |
| 20260504032943 | 7 | 155 | 0.0 | 0.0 | 0.00 | 0.00 | 0.00 | 58 | 1013.5 |
| 20260504032440 | 7 | 155 | 0.0 | 0.0 | 0.00 | 0.00 | 0.00 | 60 | 1013.5 |
| 20260504031936 | 6 | 152 | 0.0 | 0.0 | 0.00 | 0.00 | 0.00 | 62 | 1013.5 |
| 20260504031433 | 6 | 158 | 0.0 | 0.0 | 0.00 | 0.00 | 0.00 | 64 | 1013.4 |
| 20260504030930 | 6 | 159 | 0.0 | 0.0 | 0.00 | 0.00 | 0.00 | 64 | 1013.7 |
| 20260504030427 | 6 | 143 | 0.0 | 0.0 | 0.00 | 0.00 | 0.00 | 62 | 1013.6 |
| 20260504025923 | 6 | 167 | 0.0 | 0.0 | 0.00 | 0.00 | 0.00 | 64 | 1013.6 |
| 20260504025420 | 6 | 147 | 0.0 | 0.0 | 0.00 | 0.00 | 0.00 | 65 | 1013.4 |
| 20260504024917 | 6 | 147 | 0.0 | 0.0 | 0.00 | 0.00 | 0.00 | 64 | 1013.5 |
| 20260504024414 | 6 | 147 | 0.0 | 0.0 | 0.00 | 0.00 | 0.00 | 64 | 1013.4 |
| 20260504023911 | 6 | 146 | 0.0 | 0.0 | 0.00 | 0.00 | 0.00 | 64 | 1013.4 |
| 20260504023407 | 6 | 146 | 0.0 | 0.0 | 0.00 | 0.00 | 0.00 | 62 | 1013.4 |
| 20260504022903 | 6 | 146 | 0.0 | 0.0 | 0.00 | 0.00 | 0.00 | 61 | 1013.4 |
| 20260504022400 | 6 | 146 | 0.0 | 0.0 | 0.00 | 0.00 | 0.00 | 61 | 1013.5 |
| 20260504021856 | 7 | 146 | 0.0 | 0.0 | 0.00 | 0.00 | 0.00 | 60 | 1013.4 |
| 20260504021354 | 7 | 152 | 0.0 | 0.0 | 0.00 | 0.00 | 0.00 | 60 | 1013.4 |
| 20260504020850 | 7 | 159 | 0.0 | 0.0 | 0.00 | 0.00 | 0.00 | 61 | 1013.5 |
| 20260504020347 | 7 | 159 | 0.0 | 0.0 | 0.00 | 0.00 | 0.00 | 61 | 1013.6 |
| 20260504015843 | 7 | 159 | 0.0 | 0.0 | 0.00 | 0.00 | 0.00 | 60 | 1013.5 |
| 20260504015340 | 7 | 159 | 0.0 | 0.0 | 0.00 | 0.00 | 0.00 | 58 | 1013.4 |
| 20260504014836 | 7 | 159 | 0.0 | 0.0 | 0.00 | 0.00 | 0.00 | 57 | 1013.4 |
| 20260504014332 | 7 | 159 | 0.0 | 0.0 | 0.00 | 0.00 | 0.00 | 56 | 1013.4 |
| 20260504013830 | 7 | 159 | 0.0 | 0.0 | 0.00 | 0.00 | 0.00 | 56 | 1013.2 |
| 20260504013327 | 8 | 159 | 0.0 | 0.0 | 0.00 | 0.00 | 0.00 | 55 | 1013.2 |
| 20260504012824 | 8 | 159 | 0.0 | 0.0 | 0.00 | 0.00 | 0.00 | 56 | 1013.1 |
| 20260504012322 | 8 | 159 | 0.0 | 0.0 | 0.00 | 0.00 | 0.00 | 55 | 1013.2 |
| 20260504011819 | 8 | 159 | 0.0 | 0.0 | 0.00 | 0.00 | 0.00 | 55 | 1013.1 |
| 20260504011315 | 8 | 159 | 0.0 | 0.0 | 0.00 | 0.00 | 0.00 | 55 | 1013.1 |
| 20260504010811 | 8 | 159 | 0.0 | 0.0 | 0.00 | 0.00 | 0.00 | 54 | 1012.9 |
| 20260504010307 | 9 | 159 | 0.0 | 0.0 | 0.00 | 0.00 | 0.00 | 52 | 1012.7 |
| 20260504005804 | 9 | 159 | 0.0 | 0.0 | 0.00 | 0.00 | 0.00 | 51 | 1012.7 |
| 20260504005301 | 10 | 159 | 0.0 | 0.0 | 0.00 | 0.00 | 0.00 | 51 | 1012.7 |
| 20260504004758 | 10 | 157 | 0.0 | 0.0 | 0.00 | 0.00 | 0.00 | 50 | 1012.7 |
| 20260504004256 | 10 | 166 | 0.0 | 0.0 | 0.00 | 0.00 | 0.00 | 50 | 1012.5 |
| 20260504003752 | 10 | 167 | 0.0 | 0.0 | 0.00 | 0.00 | 0.00 | 49 | 1012.6 |
| 20260504003249 | 10 | 157 | 0.0 | 0.0 | 0.00 | 0.00 | 0.00 | 48 | 1012.5 |
| 20260504002745 | 10 | 157 | 0.0 | 0.0 | 0.00 | 0.00 | 0.00 | 49 | 1012.4 |
| 20260504002242 | 11 | 157 | 0.0 | 0.0 | 0.00 | 0.00 | 0.00 | 48 | 1012.3 |
| 20260504001740 | 11 | 157 | 0.0 | 0.0 | 0.00 | 0.00 | 0.00 | 47 | 1012.2 |
| 20260504001237 | 11 | 157 | 0.0 | 0.0 | 0.00 | 0.00 | 0.00 | 43 | 1012.2 |
| 20260504000734 | 12 | 157 | 0.0 | 0.0 | 0.00 | 0.00 | 0.00 | 43 | 1012.2 |
| 20260504000231 | 12 | 157 | 0.0 | 0.0 | 0.00 | 0.00 | 0.00 | 42 | 1012.2 |
| 20260503235729 | 12 | 155 | 0.0 | 0.0 | 0.00 | 0.00 | 0.00 | 40 | 1012.1 |
| 20260503235226 | 12 | 155 | 0.0 | 0.0 | 0.00 | 0.00 | 0.00 | 38 | 1012.0 |
| 20260503234723 | 12 | 155 | 0.0 | 0.0 | 0.00 | 0.00 | 0.00 | 37 | 1011.9 |
| 20260503234222 | 13 | 155 | 0.0 | 0.0 | 0.00 | 0.00 | 0.00 | 36 | 1011.9 |
| 20260503233718 | 13 | 154 | 0.0 | 0.0 | 0.00 | 0.00 | 0.00 | 36 | 1012.0 |
| 20260503233214 | 13 | 170 | 0.0 | 0.0 | 0.00 | 0.00 | 0.00 | 35 | 1011.8 |
| 20260503232711 | 13 | 170 | 0.0 | 0.0 | 0.00 | 0.00 | 0.00 | 34 | 1011.7 |
| 20260503232208 | 13 | 170 | 0.0 | 3.2 | 0.00 | 0.00 | 0.00 | 34 | 1011.9 |
| 20260503231707 | 14 | 167 | 0.0 | 0.0 | 0.00 | 0.00 | 0.00 | 33 | 1011.8 |
| 20260503231202 | 14 | 187 | 1.6 | 1.6 | 0.00 | 0.00 | 0.00 | 33 | 1011.8 |
| 20260503230659 | 14 | 173 | 0.0 | 1.6 | 0.00 | 0.00 | 0.00 | 33 | 1011.6 |
| 20260503230156 | 14 | 147 | 0.0 | 1.6 | 0.00 | 0.00 | 0.00 | 33 | 1011.7 |
| 20260503225653 | 15 | 144 | 0.0 | 1.6 | 0.00 | 0.00 | 0.00 | 33 | 1011.7 |
| 20260503225154 | 15 | 214 | 1.6 | 1.6 | 0.00 | 0.00 | 0.00 | 32 | 1011.6 |
| 20260503224651 | 15 | 154 | 0.0 | 0.0 | 0.00 | 0.00 | 0.00 | 34 | 1011.6 |
| 20260503224149 | 15 | 142 | 0.0 | 1.6 | 0.00 | 0.00 | 0.00 | 31 | 1011.6 |
| 20260503223647 | 15 | 320 | 3.2 | 4.8 | 0.00 | 0.00 | 0.00 | 31 | 1011.5 |
| 20260503223143 | 15 | 144 | 0.0 | 1.6 | 0.00 | 0.00 | 0.00 | 31 | 1011.5 |
| 20260503222640 | 15 | 68 | 0.0 | 4.8 | 0.00 | 0.00 | 0.00 | 33 | 1011.5 |
| 20260503222138 | 15 | 102 | 3.2 | 3.2 | 0.00 | 0.00 | 0.00 | 32 | 1011.6 |
| 20260503221636 | 15 | 336 | 1.6 | 3.2 | 0.00 | 0.00 | 0.00 | 31 | 1011.5 |
| 20260503221133 | 15 | 117 | 4.8 | 12.9 | 0.00 | 0.00 | 0.00 | 31 | 1011.4 |
| 20260503220630 | 15 | 341 | 3.2 | 6.4 | 0.00 | 0.00 | 0.00 | 29 | 1011.5 |
| 20260503220126 | 15 | 166 | 0.0 | 11.3 | 0.00 | 0.00 | 0.00 | 29 | 1011.5 |
| 20260503215624 | 15 | 132 | 3.2 | 4.8 | 0.00 | 0.00 | 0.00 | 30 | 1011.6 |
| 20260503215120 | 15 | 130 | 1.6 | 6.4 | 0.00 | 0.00 | 0.00 | 30 | 1011.6 |
| 20260503214619 | 16 | 174 | 0.0 | 3.2 | 0.00 | 0.00 | 0.00 | 29 | 1011.7 |